Location: Bosmont
(49.7318°N, 3.8587°E)
Time: 23:38:01
(UTC+00:00)

ATLAS 5 CENTAUR R/B - Pass Details

Date: 08 February 2023
Orbit: 460 x 1177 km, 63.3° (Epoch: 01 April)

Event Time Altitude Azimuth Distance (km) Brightness Sun altitude
Rises 18:27:48 0° 313° (NW) 2,826 5.6 -16.0°
Reaches altitude 10° 18:30:28 10° 332° (NNW) 2,037 4.5 -16.4°
Maximum altitude 18:33:51 19° 19° (NNE) 1,642 3.5 -16.9°
Enters shadow 18:35:13 18° 40° (NE) 1,784 3.5 -17.2°
